Year,Month,Day,Hour,Minute,Value (Times are PST for temperature in C)
2021,04,09,00,00,5.10
2021,04,09,00,01,5.10
2021,04,09,00,02,5.10
2021,04,09,00,03,5.10
2021,04,09,00,04,5.00
2021,04,09,00,05,5.00
2021,04,09,00,06,5.00
2021,04,09,00,07,5.00
2021,04,09,00,08,4.90
2021,04,09,00,09,4.90
2021,04,09,00,10,4.90
2021,04,09,00,11,4.90
2021,04,09,00,12,4.90
2021,04,09,00,13,4.90
2021,04,09,00,14,4.90
2021,04,09,00,15,4.90
2021,04,09,00,16,4.90
2021,04,09,00,17,4.90
2021,04,09,00,18,4.90
2021,04,09,00,19,4.90
2021,04,09,00,20,4.90
2021,04,09,00,21,4.90
2021,04,09,00,22,4.90
2021,04,09,00,23,4.90
2021,04,09,00,24,4.80
2021,04,09,00,25,4.80
2021,04,09,00,26,4.90
2021,04,09,00,27,4.80
2021,04,09,00,28,4.90
2021,04,09,00,29,4.90
2021,04,09,00,30,4.90
2021,04,09,00,31,4.90
2021,04,09,00,32,4.90
2021,04,09,00,33,4.90
2021,04,09,00,34,4.90
2021,04,09,00,35,4.80
2021,04,09,00,36,4.80
2021,04,09,00,37,4.80
2021,04,09,00,38,4.80
2021,04,09,00,39,4.80
2021,04,09,00,40,4.80
2021,04,09,00,41,4.80
2021,04,09,00,42,4.80
2021,04,09,00,43,4.80
2021,04,09,00,44,4.80
2021,04,09,00,45,4.80
2021,04,09,00,46,4.80
2021,04,09,00,47,4.80
2021,04,09,00,48,4.80
2021,04,09,00,49,4.80
2021,04,09,00,50,4.80
2021,04,09,00,51,4.80
2021,04,09,00,52,4.80
2021,04,09,00,53,4.80
2021,04,09,00,54,4.80
2021,04,09,00,55,4.80
2021,04,09,00,56,4.80
2021,04,09,00,57,4.80
2021,04,09,00,58,4.80
2021,04,09,00,59,4.80
2021,04,09,01,00,4.80
2021,04,09,01,01,4.80
2021,04,09,01,02,4.80
2021,04,09,01,03,4.80
2021,04,09,01,04,4.80
2021,04,09,01,05,4.80
2021,04,09,01,06,4.80
2021,04,09,01,07,4.80
2021,04,09,01,08,4.80
2021,04,09,01,09,4.80
2021,04,09,01,10,4.80
2021,04,09,01,11,4.70
2021,04,09,01,12,4.70
2021,04,09,01,13,4.70
2021,04,09,01,14,4.70
2021,04,09,01,15,4.70
2021,04,09,01,16,4.70
2021,04,09,01,17,4.70
2021,04,09,01,18,4.70
2021,04,09,01,19,4.70
2021,04,09,01,20,4.70
2021,04,09,01,21,4.80
2021,04,09,01,22,4.80
2021,04,09,01,23,4.80
2021,04,09,01,24,4.80
2021,04,09,01,25,4.80
2021,04,09,01,26,4.80
2021,04,09,01,27,4.80
2021,04,09,01,28,4.80
2021,04,09,01,29,4.80
2021,04,09,01,30,4.80
2021,04,09,01,31,4.70
2021,04,09,01,32,4.70
2021,04,09,01,33,4.80
2021,04,09,01,34,4.80
2021,04,09,01,35,4.80
2021,04,09,01,36,4.80
2021,04,09,01,37,4.80
2021,04,09,01,38,4.80
2021,04,09,01,39,4.90
2021,04,09,01,40,4.90
2021,04,09,01,41,4.90
2021,04,09,01,42,4.90
2021,04,09,01,43,4.90
2021,04,09,01,44,4.90
2021,04,09,01,45,4.90
2021,04,09,01,46,4.90
2021,04,09,01,47,4.90
2021,04,09,01,48,4.90
2021,04,09,01,49,4.90
2021,04,09,01,50,4.90
2021,04,09,01,51,4.90
2021,04,09,01,52,4.90
2021,04,09,01,53,4.90
2021,04,09,01,54,4.90
2021,04,09,01,55,4.90
2021,04,09,01,56,4.90
2021,04,09,01,57,4.90
2021,04,09,01,58,4.90
2021,04,09,01,59,4.90
2021,04,09,02,00,4.90
2021,04,09,02,01,4.90
2021,04,09,02,02,4.90
2021,04,09,02,03,4.90
2021,04,09,02,04,4.90
2021,04,09,02,05,4.90
2021,04,09,02,06,4.90
2021,04,09,02,07,4.90
2021,04,09,02,08,4.80
2021,04,09,02,09,4.80
2021,04,09,02,10,4.90
2021,04,09,02,11,4.90
2021,04,09,02,12,4.90
2021,04,09,02,13,4.80
2021,04,09,02,14,4.90
2021,04,09,02,15,4.90
2021,04,09,02,16,4.90
2021,04,09,02,17,4.80
2021,04,09,02,18,4.80
2021,04,09,02,19,4.80
2021,04,09,02,20,4.80
2021,04,09,02,21,4.80
2021,04,09,02,22,4.80
2021,04,09,02,23,4.80
2021,04,09,02,24,4.80
2021,04,09,02,25,4.80
2021,04,09,02,26,4.80
2021,04,09,02,27,4.80
2021,04,09,02,28,4.80
2021,04,09,02,29,4.80
2021,04,09,02,30,4.80
2021,04,09,02,31,4.80
2021,04,09,02,32,4.80
2021,04,09,02,33,4.80
2021,04,09,02,34,4.80
2021,04,09,02,35,4.80
2021,04,09,02,36,4.80
2021,04,09,02,37,4.80
2021,04,09,02,38,4.80
2021,04,09,02,39,4.80
2021,04,09,02,40,4.80
2021,04,09,02,41,4.80
2021,04,09,02,42,4.80
2021,04,09,02,43,4.80
2021,04,09,02,44,4.80
2021,04,09,02,45,4.80
2021,04,09,02,46,4.80
2021,04,09,02,47,4.80
2021,04,09,02,48,4.80
2021,04,09,02,49,4.80
2021,04,09,02,50,4.80
2021,04,09,02,51,4.80
2021,04,09,02,52,4.80
2021,04,09,02,53,4.80
2021,04,09,02,54,4.80
2021,04,09,02,55,4.80
2021,04,09,02,56,4.80
2021,04,09,02,57,4.80
2021,04,09,02,58,4.80
2021,04,09,02,59,4.80
2021,04,09,03,00,4.80
2021,04,09,03,01,4.80
2021,04,09,03,02,4.80
2021,04,09,03,03,4.80
2021,04,09,03,04,4.80
2021,04,09,03,05,4.80
2021,04,09,03,06,4.80
2021,04,09,03,07,4.80
2021,04,09,03,08,4.80
2021,04,09,03,09,4.80
2021,04,09,03,10,4.80
2021,04,09,03,11,4.80
2021,04,09,03,12,4.80
2021,04,09,03,13,4.80
2021,04,09,03,14,4.80
2021,04,09,03,15,4.80
2021,04,09,03,16,4.80
2021,04,09,03,17,4.80
2021,04,09,03,18,4.80
2021,04,09,03,19,4.70
2021,04,09,03,20,4.80
2021,04,09,03,21,4.70
2021,04,09,03,22,4.70
2021,04,09,03,23,4.70
2021,04,09,03,24,4.70
2021,04,09,03,25,4.70
2021,04,09,03,26,4.80
2021,04,09,03,27,4.70
2021,04,09,03,28,4.80
2021,04,09,03,29,4.80
2021,04,09,03,30,4.80
2021,04,09,03,31,4.80
2021,04,09,03,32,4.70
2021,04,09,03,33,4.70
2021,04,09,03,34,4.70
2021,04,09,03,35,4.70
2021,04,09,03,36,4.70
2021,04,09,03,37,4.70
2021,04,09,03,38,4.70
2021,04,09,03,39,4.70
2021,04,09,03,40,4.70
2021,04,09,03,41,4.70
2021,04,09,03,42,4.70
2021,04,09,03,43,4.70
2021,04,09,03,44,4.60
2021,04,09,03,45,4.60
2021,04,09,03,46,4.60
2021,04,09,03,47,4.60
2021,04,09,03,48,4.60
2021,04,09,03,49,4.60
2021,04,09,03,50,4.60
2021,04,09,03,51,4.60
2021,04,09,03,52,4.60
2021,04,09,03,53,4.60
2021,04,09,03,54,4.60
2021,04,09,03,55,4.60
2021,04,09,03,56,4.60
2021,04,09,03,57,4.60
2021,04,09,03,58,4.60
2021,04,09,03,59,4.60
2021,04,09,04,00,4.60
2021,04,09,04,01,4.60
2021,04,09,04,02,4.60
2021,04,09,04,03,4.60
2021,04,09,04,04,4.60
2021,04,09,04,05,4.60
2021,04,09,04,06,4.60
2021,04,09,04,07,4.60
2021,04,09,04,08,4.60
2021,04,09,04,09,4.60
2021,04,09,04,10,4.60
2021,04,09,04,11,4.60
2021,04,09,04,12,4.60
2021,04,09,04,13,4.60
2021,04,09,04,14,4.50
2021,04,09,04,15,4.50
2021,04,09,04,16,4.50
2021,04,09,04,17,4.40
2021,04,09,04,18,4.40
2021,04,09,04,19,4.40
2021,04,09,04,20,4.40
2021,04,09,04,21,4.40
2021,04,09,04,22,4.40
2021,04,09,04,23,4.50
2021,04,09,04,24,4.50
2021,04,09,04,25,4.50
2021,04,09,04,26,4.50
2021,04,09,04,27,4.50
2021,04,09,04,28,4.50
2021,04,09,04,29,4.50
2021,04,09,04,30,4.50
2021,04,09,04,31,4.40
2021,04,09,04,32,4.40
2021,04,09,04,33,4.40
2021,04,09,04,34,4.40
2021,04,09,04,35,4.40
2021,04,09,04,36,4.40
2021,04,09,04,37,4.40
2021,04,09,04,38,4.50
2021,04,09,04,39,4.40
2021,04,09,04,40,4.50
2021,04,09,04,41,4.40
2021,04,09,04,42,4.40
2021,04,09,04,43,4.40
2021,04,09,04,44,4.40
2021,04,09,04,45,4.40
2021,04,09,04,46,4.30
2021,04,09,04,47,4.30
2021,04,09,04,48,4.30
2021,04,09,04,49,4.40
2021,04,09,04,50,4.40
2021,04,09,04,51,4.40
2021,04,09,04,52,4.40
2021,04,09,04,53,4.40
2021,04,09,04,54,4.40
2021,04,09,04,55,4.50
2021,04,09,04,56,4.50
2021,04,09,04,57,4.60
2021,04,09,04,58,4.60
2021,04,09,04,59,4.70
2021,04,09,05,00,4.70
2021,04,09,05,01,4.80
2021,04,09,05,02,4.90
2021,04,09,05,03,4.90
2021,04,09,05,04,5.00
2021,04,09,05,05,5.00
2021,04,09,05,06,5.10
2021,04,09,05,07,5.10
2021,04,09,05,08,5.10
2021,04,09,05,09,5.10
2021,04,09,05,10,5.10
2021,04,09,05,11,5.10
2021,04,09,05,12,5.10
2021,04,09,05,13,5.10
2021,04,09,05,14,5.10
2021,04,09,05,15,5.10
2021,04,09,05,16,5.10
2021,04,09,05,17,5.20
2021,04,09,05,18,5.20
2021,04,09,05,19,5.20
2021,04,09,05,20,5.30
2021,04,09,05,21,5.30
2021,04,09,05,22,5.30
2021,04,09,05,23,5.40
2021,04,09,05,24,5.50
2021,04,09,05,25,5.60
2021,04,09,05,26,5.60
2021,04,09,05,27,5.60
2021,04,09,05,28,5.60
2021,04,09,05,29,5.60
2021,04,09,05,30,5.70
2021,04,09,05,31,5.70
2021,04,09,05,32,5.80
2021,04,09,05,33,5.80
2021,04,09,05,34,5.80
2021,04,09,05,35,5.90
2021,04,09,05,36,5.90
2021,04,09,05,37,5.90
2021,04,09,05,38,5.90
2021,04,09,05,39,5.90
2021,04,09,05,40,5.90
2021,04,09,05,41,5.90
2021,04,09,05,42,5.90
2021,04,09,05,43,5.90
2021,04,09,05,44,5.90
2021,04,09,05,45,5.90
2021,04,09,05,46,6.00
2021,04,09,05,47,6.00
2021,04,09,05,48,6.00
2021,04,09,05,49,6.00
2021,04,09,05,50,6.00
2021,04,09,05,51,6.00
2021,04,09,05,52,6.00
2021,04,09,05,53,6.00
2021,04,09,05,54,6.00
2021,04,09,05,55,5.90
2021,04,09,05,56,5.90
2021,04,09,05,57,6.00
2021,04,09,05,58,5.90
2021,04,09,05,59,5.90
2021,04,09,06,00,5.90
2021,04,09,06,01,5.90
2021,04,09,06,02,6.00
2021,04,09,06,03,6.00
2021,04,09,06,04,6.00
2021,04,09,06,05,6.00
2021,04,09,06,06,6.00
2021,04,09,06,07,6.00
2021,04,09,06,08,6.00
2021,04,09,06,09,6.00
2021,04,09,06,10,6.00
2021,04,09,06,11,6.00
2021,04,09,06,12,6.00
2021,04,09,06,13,6.00
2021,04,09,06,14,6.00
2021,04,09,06,15,6.00
2021,04,09,06,16,6.00
2021,04,09,06,17,6.00
2021,04,09,06,18,6.10
2021,04,09,06,19,6.10
2021,04,09,06,20,6.10
2021,04,09,06,21,6.10
2021,04,09,06,22,6.10
2021,04,09,06,23,6.10
2021,04,09,06,24,6.10
2021,04,09,06,25,6.10
2021,04,09,06,26,6.10
2021,04,09,06,27,6.10
2021,04,09,06,28,6.10
2021,04,09,06,29,6.10
2021,04,09,06,30,6.10
2021,04,09,06,31,6.10
2021,04,09,06,32,6.10
2021,04,09,06,33,6.10
2021,04,09,06,34,6.10
2021,04,09,06,35,6.10
2021,04,09,06,36,6.10
2021,04,09,06,37,6.10
2021,04,09,06,38,6.10
2021,04,09,06,39,6.10
2021,04,09,06,40,6.10
2021,04,09,06,41,6.10
2021,04,09,06,42,6.10
2021,04,09,06,43,6.10
2021,04,09,06,44,6.10
2021,04,09,06,45,6.10
2021,04,09,06,46,6.10
2021,04,09,06,47,6.10
2021,04,09,06,48,6.10
2021,04,09,06,49,6.10
2021,04,09,06,50,6.10
2021,04,09,06,51,6.10
2021,04,09,06,52,6.10
2021,04,09,06,53,6.00
2021,04,09,06,54,6.00
2021,04,09,06,55,6.00
2021,04,09,06,56,6.00
2021,04,09,06,57,6.00
2021,04,09,06,58,6.00
2021,04,09,06,59,6.00
2021,04,09,07,00,5.90
2021,04,09,07,01,5.90
2021,04,09,07,02,5.90
2021,04,09,07,03,5.90
2021,04,09,07,04,5.90
2021,04,09,07,05,5.90
2021,04,09,07,06,5.90
2021,04,09,07,07,5.90
2021,04,09,07,08,5.90
2021,04,09,07,09,5.90
2021,04,09,07,10,5.80
2021,04,09,07,11,5.80
2021,04,09,07,12,5.80
2021,04,09,07,13,5.80
2021,04,09,07,14,5.80
2021,04,09,07,15,5.80
2021,04,09,07,16,5.80
2021,04,09,07,17,5.80
2021,04,09,07,18,5.80
2021,04,09,07,19,5.80
2021,04,09,07,20,5.80
2021,04,09,07,21,5.80
2021,04,09,07,22,5.80
2021,04,09,07,23,5.70
2021,04,09,07,24,5.70
2021,04,09,07,25,5.70
2021,04,09,07,26,5.70
2021,04,09,07,27,5.70
2021,04,09,07,28,5.70
2021,04,09,07,29,5.70
2021,04,09,07,30,5.70
2021,04,09,07,31,5.70
2021,04,09,07,32,5.70
2021,04,09,07,33,5.70
2021,04,09,07,34,5.70
2021,04,09,07,35,5.70
2021,04,09,07,36,5.70
2021,04,09,07,37,5.70
2021,04,09,07,38,5.70
2021,04,09,07,39,5.70
2021,04,09,07,40,5.70
2021,04,09,07,41,5.70
2021,04,09,07,42,5.70
2021,04,09,07,43,5.70
2021,04,09,07,44,5.70
2021,04,09,07,45,5.70
2021,04,09,07,46,5.70
2021,04,09,07,47,5.70
2021,04,09,07,48,5.70
2021,04,09,07,49,5.70
2021,04,09,07,50,5.70
2021,04,09,07,51,5.70
2021,04,09,07,52,5.80
2021,04,09,07,53,5.80
2021,04,09,07,54,5.80
2021,04,09,07,55,5.80
2021,04,09,07,56,5.80
2021,04,09,07,57,5.80
2021,04,09,07,58,5.80
2021,04,09,07,59,5.80
2021,04,09,08,00,5.80
2021,04,09,08,01,5.80
2021,04,09,08,02,5.90
2021,04,09,08,03,5.90
2021,04,09,08,04,5.90
2021,04,09,08,05,5.90
2021,04,09,08,06,5.90
2021,04,09,08,07,5.90
2021,04,09,08,08,6.00
2021,04,09,08,09,6.00
2021,04,09,08,10,6.00
2021,04,09,08,11,6.00
2021,04,09,08,12,6.00
2021,04,09,08,13,6.00
2021,04,09,08,14,6.00
2021,04,09,08,15,6.00
2021,04,09,08,16,6.00
2021,04,09,08,17,6.00
2021,04,09,08,18,6.00
2021,04,09,08,19,6.10
2021,04,09,08,20,6.10
2021,04,09,08,21,6.10
2021,04,09,08,22,6.10
2021,04,09,08,23,6.10
2021,04,09,08,24,6.20
2021,04,09,08,25,6.20
2021,04,09,08,26,6.30
2021,04,09,08,27,6.30
2021,04,09,08,28,6.30
2021,04,09,08,29,6.30
2021,04,09,08,30,6.40
2021,04,09,08,31,6.40
2021,04,09,08,32,6.40
2021,04,09,08,33,6.40
2021,04,09,08,34,6.40
2021,04,09,08,35,6.50
2021,04,09,08,36,6.50
2021,04,09,08,37,6.50
2021,04,09,08,38,6.50
2021,04,09,08,39,6.50
2021,04,09,08,40,6.50
2021,04,09,08,41,6.60
2021,04,09,08,42,6.60
2021,04,09,08,43,6.60
2021,04,09,08,44,6.60
2021,04,09,08,45,6.60
2021,04,09,08,46,6.60
2021,04,09,08,47,6.60
2021,04,09,08,48,6.60
2021,04,09,08,49,6.70
2021,04,09,08,50,6.60
2021,04,09,08,51,6.70
2021,04,09,08,52,6.70
2021,04,09,08,53,6.70
2021,04,09,08,54,6.70
2021,04,09,08,55,6.80
2021,04,09,08,56,6.80
2021,04,09,08,57,6.80
2021,04,09,08,58,6.80
2021,04,09,08,59,6.90
2021,04,09,09,00,6.90
2021,04,09,09,01,6.90
2021,04,09,09,02,6.90
2021,04,09,09,03,6.90
2021,04,09,09,04,6.90
2021,04,09,09,05,7.00
2021,04,09,09,06,7.00
2021,04,09,09,07,7.00
2021,04,09,09,08,7.10
2021,04,09,09,09,7.20
2021,04,09,09,10,7.20
2021,04,09,09,11,7.30
2021,04,09,09,12,7.30
2021,04,09,09,13,7.40
2021,04,09,09,14,7.50
2021,04,09,09,15,7.50
2021,04,09,09,16,7.60
2021,04,09,09,17,7.60
2021,04,09,09,18,7.60
2021,04,09,09,19,7.60
2021,04,09,09,20,7.70
2021,04,09,09,21,7.70
2021,04,09,09,22,7.70
2021,04,09,09,23,7.70
2021,04,09,09,24,7.60
2021,04,09,09,25,7.60
2021,04,09,09,26,7.60
2021,04,09,09,27,7.60
2021,04,09,09,28,7.60
2021,04,09,09,29,7.50
2021,04,09,09,30,7.50
2021,04,09,09,31,7.40
2021,04,09,09,32,7.40
2021,04,09,09,33,7.40
2021,04,09,09,34,7.40
2021,04,09,09,35,7.40
2021,04,09,09,36,7.40
2021,04,09,09,37,7.40
2021,04,09,09,38,7.40
2021,04,09,09,39,7.40
2021,04,09,09,40,7.40
2021,04,09,09,41,7.40
2021,04,09,09,42,7.30
2021,04,09,09,43,7.40
2021,04,09,09,44,7.40
2021,04,09,09,45,7.40
2021,04,09,09,46,7.40
2021,04,09,09,47,7.40
2021,04,09,09,48,7.40
2021,04,09,09,49,7.40
2021,04,09,09,50,7.40
2021,04,09,09,51,7.40
2021,04,09,09,52,7.40
2021,04,09,09,53,7.40
2021,04,09,09,54,7.40
2021,04,09,09,55,7.40
2021,04,09,09,56,7.50
2021,04,09,09,57,7.50
2021,04,09,09,58,7.60
2021,04,09,09,59,7.60
2021,04,09,10,00,7.70
2021,04,09,10,01,7.70
2021,04,09,10,02,7.80
2021,04,09,10,03,7.80
2021,04,09,10,04,7.90
2021,04,09,10,05,8.00
2021,04,09,10,06,8.10
2021,04,09,10,07,8.20
2021,04,09,10,08,8.30
2021,04,09,10,09,8.30
2021,04,09,10,10,8.30
2021,04,09,10,11,8.30
2021,04,09,10,12,8.30
2021,04,09,10,13,8.30
2021,04,09,10,14,8.30
2021,04,09,10,15,8.40
2021,04,09,10,16,8.40
2021,04,09,10,17,8.30
2021,04,09,10,18,8.30
2021,04,09,10,19,8.30
2021,04,09,10,20,8.30
2021,04,09,10,21,8.30
2021,04,09,10,22,8.30
2021,04,09,10,23,8.40
2021,04,09,10,24,8.40
2021,04,09,10,25,8.50
2021,04,09,10,26,8.60
2021,04,09,10,27,8.70
2021,04,09,10,28,8.80
2021,04,09,10,29,8.80
2021,04,09,10,30,8.90
2021,04,09,10,31,8.90
2021,04,09,10,32,8.90
2021,04,09,10,33,8.80
2021,04,09,10,34,8.90
2021,04,09,10,35,8.80
2021,04,09,10,36,8.90
2021,04,09,10,37,8.90
2021,04,09,10,38,8.90
2021,04,09,10,39,8.90
2021,04,09,10,40,8.80
2021,04,09,10,41,8.80
2021,04,09,10,42,8.80
2021,04,09,10,43,8.90
2021,04,09,10,44,9.00
2021,04,09,10,45,9.10
2021,04,09,10,46,9.10
2021,04,09,10,47,9.10
2021,04,09,10,48,9.00
2021,04,09,10,49,9.00
2021,04,09,10,50,8.90
2021,04,09,10,51,8.90
2021,04,09,10,52,8.90
2021,04,09,10,53,9.00
2021,04,09,10,54,9.00
2021,04,09,10,55,9.10
2021,04,09,10,56,9.10
2021,04,09,10,57,9.20
2021,04,09,10,58,9.30
2021,04,09,10,59,9.40
2021,04,09,11,00,9.50
2021,04,09,11,01,9.50
2021,04,09,11,02,9.50
2021,04,09,11,03,9.40
2021,04,09,11,04,9.40
2021,04,09,11,05,9.30
2021,04,09,11,06,9.20
2021,04,09,11,07,9.20
2021,04,09,11,08,9.10
2021,04,09,11,09,9.00
2021,04,09,11,10,9.00
2021,04,09,11,11,8.90
2021,04,09,11,12,8.90
2021,04,09,11,13,8.90
2021,04,09,11,14,8.90
2021,04,09,11,15,8.90
2021,04,09,11,16,8.90
2021,04,09,11,17,8.90
2021,04,09,11,18,8.90
2021,04,09,11,19,8.90
2021,04,09,11,20,8.80
2021,04,09,11,21,8.70
2021,04,09,11,22,8.70
2021,04,09,11,23,8.80
2021,04,09,11,24,8.80
2021,04,09,11,25,8.90
2021,04,09,11,26,9.00
2021,04,09,11,27,9.10
2021,04,09,11,28,9.20
2021,04,09,11,29,9.20
2021,04,09,11,30,9.30
2021,04,09,11,31,9.30
2021,04,09,11,32,9.40
2021,04,09,11,33,9.50
2021,04,09,11,34,9.60
2021,04,09,11,35,9.60
2021,04,09,11,36,9.60
2021,04,09,11,37,9.50
2021,04,09,11,38,9.40
2021,04,09,11,39,9.30
2021,04,09,11,40,9.20
2021,04,09,11,41,9.10
2021,04,09,11,42,9.10
2021,04,09,11,43,9.10
2021,04,09,11,44,9.20
2021,04,09,11,45,9.30
2021,04,09,11,46,9.50
2021,04,09,11,47,9.60
2021,04,09,11,48,9.60
2021,04,09,11,49,9.60
2021,04,09,11,50,9.50
2021,04,09,11,51,9.50
2021,04,09,11,52,9.50
2021,04,09,11,53,9.50
2021,04,09,11,54,9.40
2021,04,09,11,55,9.50
2021,04,09,11,56,9.50
2021,04,09,11,57,9.50
2021,04,09,11,58,9.50
2021,04,09,11,59,9.60
2021,04,09,12,00,9.50
2021,04,09,12,01,9.40
2021,04,09,12,02,9.40
2021,04,09,12,03,9.30
2021,04,09,12,04,9.30
2021,04,09,12,05,9.30
2021,04,09,12,06,9.30
2021,04,09,12,07,9.30
2021,04,09,12,08,9.30
2021,04,09,12,09,9.30
2021,04,09,12,10,9.30
2021,04,09,12,11,9.40
2021,04,09,12,12,9.40
2021,04,09,12,13,9.40
2021,04,09,12,14,9.50
2021,04,09,12,15,9.50
2021,04,09,12,16,9.50
2021,04,09,12,17,9.50
2021,04,09,12,18,9.50
2021,04,09,12,19,9.50
2021,04,09,12,20,9.40
2021,04,09,12,21,9.40
2021,04,09,12,22,9.40
2021,04,09,12,23,9.30
2021,04,09,12,24,9.30
2021,04,09,12,25,9.40
2021,04,09,12,26,9.40
2021,04,09,12,27,9.40
2021,04,09,12,28,9.40
2021,04,09,12,29,9.40
2021,04,09,12,30,9.40
2021,04,09,12,31,9.40
2021,04,09,12,32,9.40
2021,04,09,12,33,9.40
2021,04,09,12,34,9.40
2021,04,09,12,35,9.40
2021,04,09,12,36,9.40
2021,04,09,12,37,9.40
2021,04,09,12,38,9.40
2021,04,09,12,39,9.40
2021,04,09,12,40,9.30
2021,04,09,12,41,9.30
2021,04,09,12,42,9.40
2021,04,09,12,43,9.40
2021,04,09,12,44,9.40
2021,04,09,12,45,9.40
2021,04,09,12,46,9.50
2021,04,09,12,47,9.60
2021,04,09,12,48,9.60
2021,04,09,12,49,9.70
2021,04,09,12,50,9.70
2021,04,09,12,51,9.70
2021,04,09,12,52,9.80
2021,04,09,12,53,9.80
2021,04,09,12,54,9.80
2021,04,09,12,55,9.80
2021,04,09,12,56,9.80
2021,04,09,12,57,9.70
2021,04,09,12,58,9.70
2021,04,09,12,59,9.60
2021,04,09,13,00,9.60
2021,04,09,13,01,9.60
2021,04,09,13,02,9.60
2021,04,09,13,03,9.60
2021,04,09,13,04,9.60
2021,04,09,13,05,9.50
2021,04,09,13,06,9.50
2021,04,09,13,07,9.60
2021,04,09,13,08,9.60
2021,04,09,13,09,9.60
2021,04,09,13,10,9.80
2021,04,09,13,11,9.90
2021,04,09,13,12,9.90
2021,04,09,13,13,9.90
2021,04,09,13,14,9.90
2021,04,09,13,15,9.80
2021,04,09,13,16,9.70
2021,04,09,13,17,9.70
2021,04,09,13,18,9.70
2021,04,09,13,19,9.80
2021,04,09,13,20,9.70
2021,04,09,13,21,9.70
2021,04,09,13,22,9.60
2021,04,09,13,23,9.60
2021,04,09,13,24,9.60
2021,04,09,13,25,9.50
2021,04,09,13,26,9.50
2021,04,09,13,27,9.60
2021,04,09,13,28,9.60
2021,04,09,13,29,9.70
2021,04,09,13,30,9.70
2021,04,09,13,31,9.60
2021,04,09,13,32,9.60
2021,04,09,13,33,9.50
2021,04,09,13,34,9.50
2021,04,09,13,35,9.50
2021,04,09,13,36,9.50
2021,04,09,13,37,9.50
2021,04,09,13,38,9.60
2021,04,09,13,39,9.60
2021,04,09,13,40,9.60
2021,04,09,13,41,9.60
2021,04,09,13,42,9.60
2021,04,09,13,43,9.60
2021,04,09,13,44,9.50
2021,04,09,13,45,9.50
2021,04,09,13,46,9.60
2021,04,09,13,47,9.50
2021,04,09,13,48,9.50
2021,04,09,13,49,9.50
2021,04,09,13,50,9.50
2021,04,09,13,51,9.50
2021,04,09,13,52,9.30
2021,04,09,13,53,9.20
2021,04,09,13,54,9.00
2021,04,09,13,55,9.00
2021,04,09,13,56,8.90
2021,04,09,13,57,8.90
2021,04,09,13,58,8.80
2021,04,09,13,59,8.80
2021,04,09,14,00,8.80
2021,04,09,14,01,8.80
2021,04,09,14,02,8.80
2021,04,09,14,03,8.90
2021,04,09,14,04,9.00
2021,04,09,14,05,9.10
2021,04,09,14,06,9.10
2021,04,09,14,07,9.20
2021,04,09,14,08,9.20
2021,04,09,14,09,9.30
2021,04,09,14,10,9.30
2021,04,09,14,11,9.20
2021,04,09,14,12,9.20
2021,04,09,14,13,9.20
2021,04,09,14,14,9.20
2021,04,09,14,15,9.20
2021,04,09,14,16,9.20
2021,04,09,14,17,9.20
2021,04,09,14,18,9.20
2021,04,09,14,19,9.20
2021,04,09,14,20,9.10
2021,04,09,14,21,9.10
2021,04,09,14,22,9.00
2021,04,09,14,23,9.00
2021,04,09,14,24,9.00
2021,04,09,14,25,9.00
2021,04,09,14,26,9.10
2021,04,09,14,27,9.10
2021,04,09,14,28,9.00
2021,04,09,14,29,8.90
2021,04,09,14,30,8.80
2021,04,09,14,31,8.80
2021,04,09,14,32,8.70
2021,04,09,14,33,8.60
2021,04,09,14,34,8.60
2021,04,09,14,35,8.60
2021,04,09,14,36,8.60
2021,04,09,14,37,8.60
2021,04,09,14,38,8.70
2021,04,09,14,39,8.70
2021,04,09,14,40,8.70
2021,04,09,14,41,8.70
2021,04,09,14,42,8.70
2021,04,09,14,43,8.70
2021,04,09,14,44,8.70
2021,04,09,14,45,8.70
2021,04,09,14,46,8.70
2021,04,09,14,47,8.60
2021,04,09,14,48,8.60
2021,04,09,14,49,8.60
2021,04,09,14,50,8.60
2021,04,09,14,51,8.50
2021,04,09,14,52,8.50
2021,04,09,14,53,8.40
2021,04,09,14,54,8.40
2021,04,09,14,55,8.40
2021,04,09,14,56,8.30
2021,04,09,14,57,8.30
2021,04,09,14,58,8.30
2021,04,09,14,59,8.30
2021,04,09,15,00,8.30
2021,04,09,15,01,8.20
2021,04,09,15,02,8.10
2021,04,09,15,03,8.10
2021,04,09,15,04,8.10
2021,04,09,15,05,8.10
2021,04,09,15,06,8.10
2021,04,09,15,07,8.00
2021,04,09,15,08,7.90
2021,04,09,15,09,7.90
2021,04,09,15,10,7.90
2021,04,09,15,11,7.80
2021,04,09,15,12,7.80
2021,04,09,15,13,7.80
2021,04,09,15,14,7.80
2021,04,09,15,15,7.80
2021,04,09,15,16,7.80
2021,04,09,15,17,7.70
2021,04,09,15,18,7.70
2021,04,09,15,19,7.70
2021,04,09,15,20,7.80
2021,04,09,15,21,7.80
2021,04,09,15,22,7.80
2021,04,09,15,23,7.70
2021,04,09,15,24,7.60
2021,04,09,15,25,7.60
2021,04,09,15,26,7.60
2021,04,09,15,27,7.60
2021,04,09,15,28,7.60
2021,04,09,15,29,7.50
2021,04,09,15,30,7.40
2021,04,09,15,31,7.40
2021,04,09,15,32,7.40
2021,04,09,15,33,7.40
2021,04,09,15,34,7.40
2021,04,09,15,35,7.40
2021,04,09,15,36,7.30
2021,04,09,15,37,7.30
2021,04,09,15,38,7.30
2021,04,09,15,39,7.30
2021,04,09,15,40,7.40
2021,04,09,15,41,7.40
2021,04,09,15,42,7.40
2021,04,09,15,43,7.40
2021,04,09,15,44,7.40
2021,04,09,15,45,7.40
2021,04,09,15,46,7.40
2021,04,09,15,47,7.40
2021,04,09,15,48,7.40
2021,04,09,15,49,7.30
2021,04,09,15,50,7.30
2021,04,09,15,51,7.40
2021,04,09,15,52,7.40
2021,04,09,15,53,7.50
2021,04,09,15,54,7.50
2021,04,09,15,55,7.50
2021,04,09,15,56,7.60
2021,04,09,15,57,7.60
2021,04,09,15,58,7.60
2021,04,09,15,59,7.70
2021,04,09,16,00,7.70
2021,04,09,16,01,7.60
2021,04,09,16,02,7.60
2021,04,09,16,03,7.60
2021,04,09,16,04,7.60
2021,04,09,16,05,7.60
2021,04,09,16,06,7.60
2021,04,09,16,07,7.50
2021,04,09,16,08,7.60
2021,04,09,16,09,7.60
2021,04,09,16,10,7.70
2021,04,09,16,11,7.70
2021,04,09,16,12,7.80
2021,04,09,16,13,7.80
2021,04,09,16,14,7.80
2021,04,09,16,15,7.80
2021,04,09,16,16,7.70
2021,04,09,16,17,7.80
2021,04,09,16,18,7.80
2021,04,09,16,19,7.80
2021,04,09,16,20,7.80
2021,04,09,16,21,7.80
2021,04,09,16,22,7.90
2021,04,09,16,23,7.90
2021,04,09,16,24,7.80
2021,04,09,16,25,7.80
2021,04,09,16,26,7.80
2021,04,09,16,27,7.80
2021,04,09,16,28,7.80
2021,04,09,16,29,7.80
2021,04,09,16,30,7.90
2021,04,09,16,31,7.90
2021,04,09,16,32,8.00
2021,04,09,16,33,8.10
2021,04,09,16,34,8.10
2021,04,09,16,35,8.10
2021,04,09,16,36,8.10
2021,04,09,16,37,8.10
2021,04,09,16,38,8.10
2021,04,09,16,39,8.10
2021,04,09,16,40,8.10
2021,04,09,16,41,8.00
2021,04,09,16,42,7.90
2021,04,09,16,43,7.90
2021,04,09,16,44,7.80
2021,04,09,16,45,7.80
2021,04,09,16,46,7.80
2021,04,09,16,47,7.70
2021,04,09,16,48,7.70
2021,04,09,16,49,7.70
2021,04,09,16,50,7.60
2021,04,09,16,51,7.60
2021,04,09,16,52,7.60
2021,04,09,16,53,7.70
2021,04,09,16,54,7.70
2021,04,09,16,55,7.80
2021,04,09,16,56,7.80
2021,04,09,16,57,7.80
2021,04,09,16,58,7.90
2021,04,09,16,59,7.80
2021,04,09,17,00,7.90
2021,04,09,17,01,8.00
2021,04,09,17,02,8.00
2021,04,09,17,03,8.00
2021,04,09,17,04,7.90
2021,04,09,17,05,7.90
2021,04,09,17,06,7.90
2021,04,09,17,07,7.90
2021,04,09,17,08,7.90
2021,04,09,17,09,7.90
2021,04,09,17,10,7.80
2021,04,09,17,11,7.80
2021,04,09,17,12,7.80
2021,04,09,17,13,7.80
2021,04,09,17,14,7.80
2021,04,09,17,15,7.80
2021,04,09,17,16,7.80
2021,04,09,17,17,7.80
2021,04,09,17,18,7.80
2021,04,09,17,19,7.90
2021,04,09,17,20,7.90
2021,04,09,17,21,7.90
2021,04,09,17,22,7.90
2021,04,09,17,23,8.00
2021,04,09,17,24,8.00
2021,04,09,17,25,8.10
2021,04,09,17,26,8.10
2021,04,09,17,27,8.10
2021,04,09,17,28,8.10
2021,04,09,17,29,8.10
2021,04,09,17,30,8.20
2021,04,09,17,31,8.20
2021,04,09,17,32,8.20
2021,04,09,17,33,8.20
2021,04,09,17,34,8.20
2021,04,09,17,35,8.20
2021,04,09,17,36,8.30
2021,04,09,17,37,8.30
2021,04,09,17,38,8.30
2021,04,09,17,39,8.30
2021,04,09,17,40,8.30
2021,04,09,17,41,8.30
2021,04,09,17,42,8.30
2021,04,09,17,43,8.30
2021,04,09,17,44,8.40
2021,04,09,17,45,8.40
2021,04,09,17,46,8.40
2021,04,09,17,47,8.40
2021,04,09,17,48,8.50
2021,04,09,17,49,8.50
2021,04,09,17,50,8.60
2021,04,09,17,51,8.60
2021,04,09,17,52,8.70
2021,04,09,17,53,8.70
2021,04,09,17,54,8.80
2021,04,09,17,55,8.80
2021,04,09,17,56,8.90
2021,04,09,17,57,8.90
2021,04,09,17,58,8.90
2021,04,09,17,59,8.90
2021,04,09,18,00,8.90
2021,04,09,18,01,8.90
2021,04,09,18,02,8.90
2021,04,09,18,03,8.90
2021,04,09,18,04,8.90
2021,04,09,18,05,8.90
2021,04,09,18,06,8.90